396  
ASUS42 KTBW 020716  
RWRFL  
FLORIDA REGIONAL WEATHER ROUNDUP  
NATIONAL WEATHER SERVICE TAMPA BAY RUSKIN FL  
300 AM EDT THU APR 02 2015  
 
NOTE: "FAIR" INDICATES FEW OR NO CLOUDS BELOW 12,000 FEET WITH NO  
SIGNIFICANT WEATHER AND/OR S TO VISIBILITY
.  
 
 
FLZ001>010-012>015-112-114-115-020800-  
PANHANDLE FLORIDA  
 
CITY SKY/WX TMP DP RH WIND PRES REMARKS
 
PENSACOLA CLOUDY 70 67 90 S10 30.09S  
PENSACOLA NAS CLOUDY 70 68 93 S7 30.08F  
MILTON NAS CLOUDY 67 66 97 S5 30.09  
CRESTVIEW MOCLDY 60 59 96 CALM 30.10F  
DUKE FIELD FAIR 64 63 96 S5 30.08F  
VALPARAISO CLOUDY 69 67 95 S2 30.08F  
MARY ESTHER CLOUDY 69 65 86 SE2 30.08S  
TRI COUNTY PTSUNNY 60 59 96 CALM 30.11F  
PANAMA CITY CLOUDY 60 60 100 CALM 30.09F FOG  
TYNDALL AFB MOCLDY 68 67 96 S2 30.10S  
APALACHICOLA MOCLDY 66 62 87 CALM 30.11F FOG  
 
STATION/POSITION SKY/WX TEMP WIND PRES WAVE SWELL
 
AIR SEA DIR/SP/G HT/PER HT/PER  
(F) (DEG/KT/KT) (MB) (FT/S) (FT/S)  
30.1N 87.6W 71 71 160/ 8/ 10 1017.9F 2/ 5 2/ 5  
29.2N 88.2W 73 72 160/ 14/ 14 1018.3F 2/ 4  
28.8N 86.0W 73 75 200/ 10/ 10 1019.8F 2/ 8 2/ 8  
PANAMA CITY BEAC 69 68 200/ 5/ 6 1019.1F  
CAPE SAN BLAS NOT AVBL  
TOWER C 69 190/ 3/ 3 1019.7F  
28.5N 84.5W 69 69 160/ 2/ 4 1020.4F 1/ 5 2/ 5  
 

 
FLZ011-016>038-118-127-128-134-139-239-020800-  
NORTH FLORIDA  
 
CITY SKY/WX TMP DP RH WIND PRES REMARKS
 
MARIANNA CLEAR 65 65 100 S3 30.10F  
TALLAHASSEE MOCLDY 63 59 87 E3 30.12F  
PERRY MOCLDY 64 63 99 NE3 30.15S  
CROSS CITY N/A 64 63 96 CALM 30.15F  
LAKE CITY FAIR 61 61 100 SE3 30.16S  
GAINESVILLE MOCLDY 63 61 93 CALM 30.15F  
MAYPORT NAS PTCLDY 63 61 93 N3 30.16F  
JACKSONVILLE FOG 57 56 96 NE3 30.16F VSB 1  
JAX NAS MOCLDY 68 63 84 N5 30.17F  
JAX CRAIG LGT RAIN 59 58 96 N5 30.16F  
JAX CECIL MOCLDY 61 61 100 CALM 30.16F FOG  
FERNANDINA BEA N/A 63 61 94 CALM 30.16F VSB 3/4  
ST AUGUSTINE MOCLDY 62 61 96 N5 30.16F  
 
STATION/POSITION SKY/WX TEMP WIND PRES WAVE SWELL
 
AIR SEA DIR/SP/G HT/PER HT/PER  
(F) (DEG/KT/KT) (MB) (FT/S) (FT/S)  
SHELL POINT 69 250/ 5/ 8 N/A  
KEATON BEACH 69 360/ 2/ 3 1020.7F  
CEDAR KEY 68 60/ 7/ 8 1021.4F  
FERNANDINA 62 66 30/ 4/ 5 1021.3S  
30.7N 81.3W 63 N/A 2/ 3  
MAYPORT 63 65 10/ 1/ 2 1021.9R  
31.4N 80.9W 64 61 90/ 10/ 12 1021.9F 3/ 5 2/ 8  
ST AUGUSTINE 63 63 360/ 7/ 7 1021.6F  
 

 
FLZ040-043>046-052-053-057-058-063-144-020800-  
INTERIOR CENTRAL FLORIDA  
 
CITY SKY/WX TMP DP RH WIND PRES REMARKS
 
OCALA PTCLDY 63 61 94 CALM 30.15F  
THE VILLAGES N/A 66 66 100 NW6 30.05F  
LEESBURG PTCLDY 66 64 93 NW5 30.15F  
SANFORD PTCLDY 66 63 90 NW7 30.13F  
ORLANDO EXEC PTCLDY 68 63 84 NW7 30.14F  
ORLANDO INTL MOCLDY 68 64 87 CALM 30.15F  
WINTER HAVEN PTCLDY 66 62 87 CALM 30.16F  
LAKELAND MOCLDY 63 59 88 CALM 30.16F  
BARTOW FAIR 64 63 94 N3 30.16F  
OKEECHOBEE PTCLDY 64 61 88 N6 30.14S  
 

 
FLZ041-047-054-059-064-141-147-020800-  
EAST CENTRAL FLORIDA  
 
CITY SKY/WX TMP DP RH WIND PRES REMARKS
 
DAYTONA BEACH MOCLDY 66 63 90 N3 30.14F  
DELAND N/A N/A N/A N/A N5 30.14F  
JFK SPACE CTR PTCLDY 65 62 90 SW1 30.12F  
CAPE CANAVERAL PTCLDY 66 63 88 W2 30.12F  
PATRICK AFB PTCLDY 69 64 83 NW6 30.13F  
MELBOURNE CLEAR 65 59 81 CALM 30.14F  
VERO BEACH CLEAR 64 60 87 W3 30.14F  
FT PIERCE CLEAR 60 58 92 NW3 30.13F  
STUART CLEAR 66 61 82 SW3 30.14S  
 
STATION/POSITION SKY/WX TEMP WIND PRES WAVE SWELL
 
AIR SEA DIR/SP/G HT/PER HT/PER  
(F) (DEG/KT/KT) (MB) (FT/S) (FT/S)  
28.5N 80.2W 71 72 290/ 6/ 8 1020.8F  
28.9N 78.5W 71 74 50/ 8/ 10 1020.7F  
TRIDENT PIER 69 73 250/ 4/ 6 1021.3S  
28.4N 80.5W 72 N/A 1/11  
27.5N 80.2W 76 N/A 2/ 6  
 

 
FLZ050-056-061-142-242-148-248-149-249-151-251-155-255-  
160-260-020800-  
WEST CENTRAL FLORIDA  
 
CITY SKY/WX TMP DP RH WIND PRES REMARKS
 
CRYSTAL RIVER FAIR 61 61 100 CALM 30.16F  
INVERNESS PTSUNNY N/A N/A N/A CALM 30.16F  
BROOKSVILLE PTCLDY 59 58 96 CALM 30.16F FOG  
ZEPHYRHILLS FAIR 59 59 100 CALM 30.16F  
CLEARWATER PTCLDY 64 64 100 CALM 30.15S  
TAMPA INTL PTCLDY 67 62 84 CALM 30.16S  
TAMPA EXEC MOCLDY 63 61 94 CALM 30.16F  
PLANT CITY MOCLDY 63 63 100 CALM 30.17F  
MACDILL AFB PTCLDY 63 62 97 N1 30.15S  
PETER O KNIGHT PTCLDY 68 64 88 CALM 30.15F  
ST PETERSBURG PTCLDY 69 66 90 NE3 30.13F  
SARASOTA CLEAR 64 63 96 N3 30.12F  
VENICE FAIR 64 64 100 NE5 30.15S  
 
STATION/POSITION SKY/WX TEMP WIND PRES WAVE SWELL
 
AIR SEA DIR/SP/G HT/PER HT/PER  
(F) (DEG/KT/KT) (MB) (FT/S) (FT/S)  
CEDAR KEY 68 60/ 7/ 8 1021.4F  
28.5N 84.5W 69 69 160/ 2/ 4 1020.4F 1/ 5 2/ 5  
27.3N 84.2W 73 N/A 1/ 6  
CLEARWATER BEACH NOT AVBL  
MIDDLE TAMPA BAY 70 350/ 5/ 7 1021.4R  
VENICE 67 73 20/ 6/ 6 1020.2F  
 

 
FLZ066-069-070-075>078-162-262-165-265-020800-  
SOUTHWEST FLORIDA AND KEYS  
 
CITY SKY/WX TMP DP RH WIND PRES REMARKS
 
PUNTA GORDA CLEAR 62 61 96 CALM 30.16S FOG  
FT MYERS CLEAR 65 63 93 CALM 30.14F  
SOUTHWEST INTL PTCLDY 63 61 93 CALM 30.15S  
NAPLES PTCLDY 66 62 87 CALM 30.14F  
MARCO ISLAND PTSUNNY 64 61 88 N3 30.14F  
IMMOKALEE SUNNY N/A N/A N/A CALM 30.15F  
MARATHON PTCLDY 73 63 70 E3 30.13F  
KEY WEST NAS CLEAR 72 62 71 E8 30.12F  
KEY WEST INTL CLEAR 73 62 68 E7 30.13F  
 
STATION/POSITION SKY/WX TEMP WIND PRES WAVE SWELL
 
AIR SEA DIR/SP/G HT/PER HT/PER  
(F) (DEG/KT/KT) (MB) (FT/S) (FT/S)  
VENICE 67 73 20/ 6/ 6 1020.2F  
NAPLES 69 76 CALM / 1 1020.9F  
26.0N 85.6W 72 74 100/ 8/ 10 1019.6F 2/ 6 2/ 6  
DRY TORTUGAS 74 80/ 12/ 13 1019.9F  
NW FL BAY 75 50/ 4/ 5 1021.0  
SAND KEY 75 90/ 12/ 14 1019.9F  
SOMBRERO KEY 74 100/ 10/ 11 1020.8F  
LONG KEY 75 76 90/ 8/ 9 1021.0F  
MOLASSES REEF 75 77 110/ 7/ 7 1020.4F  
 

 
FLZ067-068-071>074-168-172>174-020800-  
SOUTHEAST FLORIDA  
 
CITY SKY/WX TMP DP RH WIND PRES REMARKS
 
W PALM BEACH CLEAR 67 61 81 W3 30.13S  
FT LAUDER-EXEC PTCLDY 68 62 81 W5 30.14S  
FT LAUDERDALE PTCLDY 70 62 76 W5 30.13F  
POMPANO BEACH CLEAR 69 61 75 W6 30.13F  
PEMBROKE PINES PTCLDY 67 62 84 CALM 30.15F  
OPA LOCKA PTCLDY 67 62 84 CALM 30.14F  
MIAMI PTCLDY 69 62 78 CALM 30.14F  
WEST KENDALL MOCLDY 64 61 90 CALM 30.14F  
HOMESTEAD CLEAR 64 63 94 CALM 30.13F  
 
STATION/POSITION SKY/WX TEMP WIND PRES WAVE SWELL
 
AIR SEA DIR/SP/G HT/PER HT/PER  
(F) (DEG/KT/KT) (MB) (FT/S) (FT/S)  
PORT EVERGLADES 72 260/ 4/ 5 1020.3F  
VIRGINIA KEY 72 77 320/ 2/ 3 1020.4F  
LAKE WORTH 72 77 210/ 5/ 9 1020.1F  
SETTLEMENT POINT 72 130/ 6/ 6 1020.9F  
 

 
 
CLICK HERE TO GO TO PREVIOUS BULLETINS.

The Nexlab FL Page Main Text Page